星链-1401 (STARLINK-1401 )

导读

STARLINK-1401是美国太空探索技术公司 SpaceX 星链计划的卫星,于2020年6月4日发射升空。星链旨在构建全球卫星互联网,该卫星为星座组网提供支撑,服务覆盖全球偏远地区,推动互联网普及,也引发了天文观测、空间碎片等领域的广泛讨论。

Basic Information
目录编号:
45684
目录名称:
STARLINK-1401
国际标识:
2020-035AD
轨道中心:
EARTH
卫星名称:
星链-1401
卫星全名:
星链-1401 (STARLINK-1401 )
卫星状态:
已陨落 最后检测时间 2025-02-07
发射日期:
2020-06-04 UTC
国别 :
美国 (US)
星等 :
--
Orbit Information
数据来源 国际轨道数据
星历时间: 2025-02-07T17:42:59+0800
轨道信息已过期496天
半长轴: 6527.698km
偏心率: 0.0007512
轨道倾角: 53.025°
近地点辐角 281.410°
升交点赤经 267.593°
平近点角 233.607°
近地点: 144.659km
远地点: 154.467km
周期: 87.478分钟
每日圈数: 16.461247
Detailed Information
固有亮度:
5
最大亮度:
2.5
卫星平台:
Starlink V1.0
覆盖范围:
全球
运营商:
太空探索技术公司
运营商所在国:
美国
制造商(研发单位):
太空探索技术公司
制造商所在国:
美国
使用方式:
暂无
Satellite Introduction
星链(Starlink)计划是由太空探索技术公司(SpaceX)提出的一个巨型低轨卫星互联网星座项目,计划在2019年至2024年间在太空搭建由约1.2万颗卫星组成的“星链”网络,其中1584颗将部署在地球上空550千米处的近地轨道,并从2020年开始工作。该卫星仍在工作。